Station 41025 (LLNR 637) - Diamond Shoals, NC Image indicating link to RSS feed of recent meteorological observations for station 41025


Conditions at 41025 as of
(10:00 pm EDT on 05/18/2024)
0200 GMT on 05/19/2024:
     

Click on the graph icon in the table below to see a time series plot of the last five days of that observation.

5-day plot - Wind Direction Wind Direction (WDIR):NNE ( 30 deg true )
5-day plot - Wind Speed Wind Speed (WSPD): 7.8 kts
5-day plot - Wind Gust Wind Gust (GST): 9.7 kts
5-day plot - Atmospheric Pressure Atmospheric Pressure (PRES):29.84 in
5-day plot - Pressure Tendency Pressure Tendency (PTDY):+0.00 in ( Steady )
5-day plot - Water Temperature Water Temperature (WTMP): 67.8 °F
5-day plot - Wind Speed at 10 Meters Wind Speed at 10 meters (WSPD10M): 7.8 kts
5-day plot - Wind Speed at 20 Meters Wind Speed at 20 meters (WSPD20M): 9.7 kts
5-day plot -  Wind Speed, Wind Gust and Atmospheric Pressure Combined plot of Wind Speed, Gust, and Air Pressure
Supplemental Measurements
Highest 1-minute Wind Speed
Time (EDT)5-day plot - 1-Minute Wind Speed WSPD 5-day plot - 1-Minute Wind Direction WDIR
9:59 pm 9.7 kts-
Previous observations
TIME
(EDT)
5-day plot - Wind Direction
WDIR
 
5-day plot - Wind Speed
WSPD
kts
5-day plot - Wind Gust
GST
kts
5-day plot - Wave Height
WVHT
ft
5-day plot - Dominant Wave Period
DPD
sec
5-day plot - Average Wave Period
APD
sec
5-day plot - Mean Wave Direction
MWD
 
5-day plot - Atmospheric Pressure
PRES
in
5-day plot - Pressure Tendency
PTDY
in
5-day plot - Air Temperature
ATMP
°F
5-day plot - Water Temperature
WTMP
°F
5-day plot - Dew Point
DEWP
°F
5-day plot - Salinity
SAL
psu
5-day plot - Visibility
VIS
nmi
5-day plot - Tide (above MLLW)
TIDE
ft
2024-05-18 09:50 pmNNE 7.8 9.7----29.85-- 67.8----
2024-05-18 09:40 pmNNE 7.8 9.7----29.85-- 67.8----
2024-05-18 09:30 pmNNE 7.8 9.7----29.84-- 67.6----
2024-05-18 09:20 pmNNE 5.8 9.7----29.84-- 67.8----
2024-05-18 09:10 pm N 1.9 3.9----29.84-- 67.8----
2024-05-18 09:00 pm- 0.0 3.9----29.84-0.01- 67.8----
2024-05-18 08:50 pm- 0.0 3.9----29.83-- 67.8----
2024-05-18 08:40 pm W 1.9 3.9----29.83-- 67.8----
2024-05-18 08:30 pmWNW 3.9 3.9----29.84-- 67.8----
2024-05-18 08:20 pmWNW 3.9 3.9----29.83-- 67.8----
2024-05-18 08:10 pm W 1.9 5.8----29.83-- 67.8----
2024-05-18 08:00 pmWSW 3.9 5.8----29.83-0.03- 67.8----
2024-05-18 07:50 pm SW 1.9 3.9----29.82-- 67.8----
2024-05-18 07:40 pmSSW 3.9 5.8----29.83-- 67.8----
2024-05-18 07:10 pmSSW 5.8 7.8----29.84-- 67.8----
2024-05-18 07:00 pmSSW 5.8 9.7----29.84-0.03- 67.8----
2024-05-18 06:50 pm S 3.9 7.8----29.84-- 67.8----
2024-05-18 06:40 pmSSE 3.9 5.8----29.84-- 67.8----
2024-05-18 06:30 pm SE 3.9 5.8----29.83-- 67.8----
2024-05-18 06:20 pm SE 1.9 3.9----29.83-- 68.0----
2024-05-18 06:10 pm- 0.0 3.9----29.85-- 68.0----
2024-05-18 06:00 pm- 0.0 1.9----29.85-0.03- 68.0----
2024-05-18 05:50 pm- 0.0 1.9----29.85-- 68.0----
2024-05-18 05:40 pm- 0.0 1.9----29.85-- 68.0----
2024-05-18 05:30 pm- 0.0 1.9----29.85-- 68.0----
2024-05-18 05:20 pm- 0.0 1.9----29.85-- 68.0----
2024-05-18 05:10 pm- 0.0 0.0----29.85-- 68.0----
2024-05-18 05:00 pm- 0.0 0.0----29.86-0.02- 68.0----
2024-05-18 04:50 pm- 0.0 1.9----29.86-- 68.0----
2024-05-18 04:40 pm- 0.0 1.9----29.86-- 68.0----
2024-05-18 04:30 pm SW 1.9 3.9----29.87-- 68.0----
2024-05-18 04:20 pm SW 3.9 3.9----29.87-- 68.0----
2024-05-18 04:10 pm SW 1.9 3.9----29.88-- 68.0----
2024-05-18 04:00 pm SW 1.9 3.9----29.87-0.04- 68.2----
2024-05-18 03:50 pm SW 1.9 3.9----29.87-- 68.2----
2024-05-18 03:40 pmWSW 1.9 3.9----29.87-- 68.2----
2024-05-18 03:30 pmWSW 1.9 3.9----29.87-- 68.2----
2024-05-18 03:20 pmWSW 1.9 3.9----29.87-- 68.2----
2024-05-18 03:10 pmWSW 3.9 3.9----29.87-- 68.2----
2024-05-18 03:00 pmWSW 3.9 5.8----29.88-0.04- 68.2----
2024-05-18 02:50 pm SW 3.9 5.8----29.88-- 68.4----
2024-05-18 02:40 pm SW 5.8 7.8----29.88-- 68.4----
2024-05-18 02:30 pm SW 3.9 5.8----29.88-------
2024-05-18 02:20 pm SW 3.9 5.8----29.88-- 68.4----
2024-05-18 02:10 pmSSW 3.9 5.8----29.88-- 68.4----
2024-05-18 02:00 pm- 0.0 3.9----29.88-0.05- 68.5----
2024-05-18 01:50 pm- 0.0 1.9----29.88-- 68.7----
2024-05-18 01:40 pm- 0.0 1.9----29.88-- 68.0----
2024-05-18 01:30 pm- 0.0 0.0----29.89-- 68.0----
2024-05-18 01:20 pm- 0.0 1.9----29.90-------
2024-05-18 01:10 pm S 1.9 3.9----29.90-- 68.2----
2024-05-18 01:00 pmSSE 1.9 3.9----29.91-0.01- 68.4----
2024-05-18 12:50 pm- 0.0 0.0----29.91-- 68.5----
2024-05-18 12:40 pm- 0.0 0.0----29.92-- 68.4----
2024-05-18 12:30 pm- 0.0 3.9----29.92-- 68.4----
2024-05-18 12:20 pmESE 1.9 3.9----29.92-- 68.4----
2024-05-18 12:10 pm E 3.9 5.8----29.92-- 68.4----
2024-05-18 12:00 pm E 3.9 5.8----29.91-0.02- 68.4----
2024-05-18 11:50 am E 5.8 9.7----29.91-- 68.2----
2024-05-18 11:40 am E 7.8 9.7----29.92-- 68.2----
2024-05-18 11:30 am E 9.7 11.7----29.92-- 68.2----
2024-05-18 11:20 am E 5.8 9.7----29.92-- 68.0----
2024-05-18 11:10 amNNE 3.9 7.8----29.92-- 68.0----
2024-05-18 11:00 am NE 5.8 7.8----29.92+0.00- 68.0----
2024-05-18 10:50 amENE 1.9 7.8----29.92-- 68.0----
2024-05-18 10:40 amESE 5.8 7.8----29.93-- 68.0----
2024-05-18 10:30 am E 5.8 11.7----29.93-- 68.0----
2024-05-18 10:20 am E 7.8 13.6----29.93-- 68.2----
2024-05-18 10:10 am NE 7.8 13.6----29.94-- 68.2----
2024-05-18 10:00 am SE 7.8 9.7----29.93+0.00- 68.2----
2024-05-18 09:50 am SE 5.8 7.8----29.93-- 68.4----
2024-05-18 09:40 am SE 3.9 5.8----29.93-- 68.2----
2024-05-18 09:30 am SE 5.8 7.8----29.93-- 68.2----
2024-05-18 09:20 amESE 5.8 7.8----29.93-- 68.2----
2024-05-18 09:10 amESE 5.8 7.8----29.93-- 68.4----
2024-05-18 09:00 amESE 7.8 7.8----29.93+0.00- 68.5----
2024-05-18 08:50 amESE 3.9 5.8----29.94-- 68.7----
2024-05-18 08:40 am E 5.8 7.8----29.95-- 68.7----
2024-05-18 08:30 am E 5.8 7.8----29.94-- 68.9----
2024-05-18 08:20 am E 7.8 9.7----29.94-- 69.1----
2024-05-18 08:10 amENE 7.8 9.7----29.93-- 69.8----
2024-05-18 08:00 amENE 7.8 9.7----29.93+0.01- 70.0----
2024-05-18 07:50 am NE 7.8 9.7----29.94-- 70.0----
2024-05-18 07:40 am NE 5.8 7.8----29.94-- 70.0----
2024-05-18 07:30 amNNE 5.8 7.8----29.94-- 70.0----
2024-05-18 07:20 am NE 5.8 7.8----29.93-- 70.0----
2024-05-18 07:10 am NE 5.8 7.8----29.93-- 69.8----
2024-05-18 07:00 am NE 7.8 7.8----29.93+0.00- 69.8----
2024-05-18 06:50 am NE 7.8 9.7----29.93-- 69.4----
2024-05-18 06:40 am NE 7.8 9.7----29.93-- 69.3----
2024-05-18 06:30 am NE 7.8 9.7----29.93-- 68.9----
2024-05-18 06:20 am NE 7.8 9.7----29.94-- 68.9----
2024-05-18 06:10 amENE 7.8 9.7----29.93-- 68.7----
2024-05-18 06:00 amENE 7.8 9.7----29.93-0.01- 68.4----
2024-05-18 05:50 amENE 7.8 9.7----29.93-- 68.4----
2024-05-18 05:40 amENE 7.8 11.7----29.92-- 68.2----
2024-05-18 05:30 am NE 7.8 9.7----29.92-- 68.2----
2024-05-18 05:20 amENE 7.8 9.7----29.92-- 67.8----
2024-05-18 05:10 amENE 7.8 9.7----29.92-- 67.3----
2024-05-18 05:00 amENE 7.8 9.7----29.91-0.05------
2024-05-18 04:50 am NE 7.8 7.8----29.92-- 66.9----
2024-05-18 04:40 am NE 5.8 7.8----29.92-- 67.6----
2024-05-18 04:30 am NE 5.8 7.8----29.93-- 68.0----
2024-05-18 04:20 am NE 5.8 7.8----29.93-- 68.4----
2024-05-18 04:10 am NE 5.8 7.8----29.93-- 67.6----
2024-05-18 04:00 am NE 5.8 5.8----29.93-0.04- 67.6----
2024-05-18 03:50 am NE 5.8 5.8----29.93-- 67.5----
2024-05-18 03:40 amNNE 5.8 5.8----29.94-- 67.5----
2024-05-18 03:30 amNNE 3.9 5.8----29.94-- 66.9----
2024-05-18 03:20 amNNE 3.9 5.8----29.94-- 66.7----
2024-05-18 03:10 amNNE 5.8 5.8----29.94-- 66.7----
2024-05-18 03:00 amNNE 5.8 5.8----29.94-0.03- 66.2----
2024-05-18 02:50 amNNE 5.8 5.8----29.94-- 66.2----
2024-05-18 02:40 amNNE 5.8 7.8----29.95-- 66.0----
2024-05-18 02:30 amNNE 5.8 5.8----29.95-- 65.7----
2024-05-18 02:20 amNNE 5.8 7.8----29.95-- 65.5----
2024-05-18 02:10 am N 3.9 3.9----29.96-- 65.8----
2024-05-18 02:00 am N 3.9 3.9----29.96+0.00- 64.9----
2024-05-18 01:50 amNNW 1.9 3.9----29.96-- 65.3----
2024-05-18 01:40 am N 1.9 3.9----29.96-- 65.7----
2024-05-18 01:30 amNNE 1.9 3.9----29.96-- 65.3----
2024-05-18 01:20 am- 0.0 1.9----29.96-- 65.5----
2024-05-18 01:10 am- 0.0 1.9----29.97-- 65.1----
2024-05-18 01:00 amNNE 1.9 3.9----29.96+0.01- 64.9----
2024-05-18 12:50 amNNE 1.9 3.9----29.96-- 64.8----
2024-05-18 12:40 amNNE 3.9 3.9----29.96-- 64.9----
2024-05-18 12:30 amNNE 3.9 5.8----29.96-- 64.9----
2024-05-18 12:20 am NE 5.8 7.8----29.96-- 65.5----
2024-05-18 12:10 amNNE 5.8 7.8----29.96-- 65.3----
2024-05-18 12:00 amNNE 5.8 7.8----29.97+0.03- 65.5----
2024-05-17 11:50 pmNNE 5.8 7.8----29.97-- 65.5----
2024-05-17 11:40 pmNNE 7.8 9.7----29.97-- 65.5----
2024-05-17 11:30 pmNNE 7.8 9.7----29.97-- 65.7----
2024-05-17 11:20 pmNNE 7.8 7.8----29.97-- 65.8----
2024-05-17 11:10 pmNNE 7.8 9.7----29.96-- 66.4----
2024-05-17 11:00 pmNNE 7.8 9.7----29.96+0.00- 66.7----
2024-05-17 10:50 pmNNE 9.7 11.7----29.96-- 66.4----
2024-05-17 10:40 pmNNE 11.7 13.6----29.96-- 66.6----
2024-05-17 10:30 pmNNE 11.7 15.5----29.96-- 66.7----
2024-05-17 10:20 pmNNE 13.6 15.5----29.96-- 66.7----
2024-05-17 10:10 pmNNE 13.6 15.5----29.96-- 66.9----
2024-05-17 10:00 pmNNE 13.6 15.5----29.96+0.01- 67.1----
2024-05-17 09:50 pmNNE 13.6 17.5----29.95-- 66.9----